This demonstration page uses our WeatherBlox Daily Observations layout. Learn more.

Left ArrowRight Arrow

Hourly Observations for June 3, 2015

Temp ( °F °C ) Dew Point ( °F °C ) Humidity (%) Winds ( mph kmh ) Pressure ( in mb ) Visibility ( mi km ) Precip ( " mm )
12:06 am 00:06 Cloudy 54 12 48 9 82 82 ENE 9 15 29.91 1013 10 16 0.00 0.00
12:22 am 00:22 Cloudy 54 12 48 9 82 82 E 7 11 29.91 1013 10 16 0.00 0.00
12:53 am 00:53 Mostly Cloudy 52 11.1 49 9.4 89 89 NE 7 11 29.95 1014 10 16 0.00 0.00
1:53 am 01:53 Mostly Cloudy 51 10.6 49 9.4 92 92 ENE 5 7 29.95 1014 10 16 0.00 0.00
2:48 am 02:48 Mostly Cloudy 52 11 48 9 88 88 E 3 6 29.94 1014 10 16 0.00 0.00
2:53 am 02:53 Cloudy 51 10.6 49 9.4 92 92 ESE 3 6 29.95 1014 10 16 0.00 0.00
3:32 am 03:32 Cloudy 52 11 50 10 94 94 SE 3 6 29.94 1014 10 16 0.00 0.00
3:53 am 03:53 Cloudy 51 10.6 49 9.4 92 92 Calm 29.95 1014 10 16 0.00 0.00
4:49 am 04:49 Mostly Cloudy with Mist and Fog 48 9 48 9 100 100 Calm 29.94 1014 5 8 0.00 0.00
4:53 am 04:53 Partly Cloudy with Mist and Fog 48 8.9 48 8.9 100 100 NW 3 6 29.95 1014 6 10 0.00 0.00
5:16 am 05:16 Clear with Mist and Fog 48 9 48 9 100 100 Calm 29.94 1014 1 2 0.00 0.00
5:19 am 05:19 Mostly Cloudy with Fog 46 7.8 46 7.8 100 100 Calm 29.97 1015 0 0 0.00 0.00
5:53 am 05:53 Mostly Cloudy with Fog 45 7.2 45 7.2 100 100 SSW 3 6 29.97 1015 5 8 0.00 0.00
6:36 am 06:36 Cloudy with Mist and Fog 48 9 48 9 100 100 Calm 30.00 1016 1 1 0.00 0.00
6:39 am 06:39 Cloudy with Mist and Fog 48 8.9 48 8.9 100 100 Calm 30.00 1016 2 3 0.00 0.00
6:42 am 06:42 Cloudy with Mist and Fog 48 9 48 9 100 100 Calm 30.00 1016 3 5 0.00 0.00
6:53 am 06:53 Cloudy 49 9.4 49 9.4 100 100 Calm 29.97 1015 7 11 0.00 0.00
7:13 am 07:13 Cloudy with Mist and Fog 50 10 50 10 100 100 Calm 29.97 1015 3 5 0.00 0.00
7:32 am 07:32 Cloudy with Mist and Fog 52 11 52 11 100 100 SW 5 7 29.97 1015 3 4 0.00 0.00
7:46 am 07:46 Cloudy with Mist and Fog 51 10.6 51 10.6 100 100 SW 7 11 29.97 1015 4 6 0.00 0.00
7:53 am 07:53 Cloudy with Mist and Fog 52 11.1 51 10.6 97 97 WSW 7 11 29.97 1015 4 6 0.00 0.00
8:53 am 08:53 Cloudy 54 12.2 52 11.1 93 93 SW 5 7 29.97 1015 10 16 0.00 0.00
9:07 am 09:07 Cloudy 55 12.8 52 11.1 90 90 SW 8 13 29.94 1014 10 16 0.00 0.00
9:53 am 09:53 Cloudy 59 15 53 11.7 81 81 SW 6 9 29.96 1015 10 16 0.00 0.00
10:13 am 10:13 Partly Cloudy 61 16.1 52 11.1 72 72 W 7 11 29.91 1013 10 16 0.00 0.00
10:53 am 10:53 Partly Cloudy 63 17.2 52 11.1 68 68 VRB 3 6 29.95 1014 10 16 0.00 0.00
11:53 am 11:53 Sunny 66 18.9 50 10 56 56 S 8 13 29.93 1014 10 16 0.00 0.00
12:53 pm 12:53 Sunny 69 20.6 46 7.8 44 44 SW 10 17 29.91 1013 10 16 0.00 0.00
1:53 pm 13:53 Mostly Sunny 70 21.1 46 7.8 42 42 S 9 15 29.90 1013 10 16 0.00 0.00
2:53 pm 14:53 Mostly Cloudy 71 21.7 46 7.8 41 41 SW 5 7 29.90 1012 10 16 0.00 0.00
3:53 pm 15:53 Cloudy 69 20.6 49 9.4 49 49 VRB 3 6 29.88 1012 10 16 0.00 0.00
4:53 pm 16:53 Mostly Cloudy 71 21.7 47 8.3 42 42 SE 5 7 29.88 1012 10 16 0.00 0.00
5:53 pm 17:53 Partly Cloudy 70 21.1 50 10 49 49 ESE 18 30 29.88 1012 10 16 0.00 0.00
6:53 pm 18:53 Sunny 68 20 49 9.4 51 51 ESE 17 28 29.88 1012 10 16 0.00 0.00
7:53 pm 19:53 Mostly Cloudy 67 19.4 49 9.4 53 53 ESE 13 20 29.88 1012 10 16 0.00 0.00
8:53 pm 20:53 Partly Cloudy 63 17.2 49 9.4 60 60 SE 7 11 29.89 1012 10 16 0.00 0.00
9:53 pm 21:53 Clear 60 15.6 49 9.4 67 67 ESE 7 11 29.90 1012 10 16 0.00 0.00
10:53 pm 22:53 Clear 61 16.1 49 9.4 65 65 ESE 7 11 29.90 1012 10 16 0.00 0.00
11:53 pm 23:53 Clear 56 13.3 51 10.6 84 84 ENE 9 15 29.90 1013 10 16 0.00 0.00

Powered by AerisWeather